Powrót do katalogu

STARLINK-36270

AktywnyŁącznośćVLEO
NORAD 67200·PAYLOAD·🇺🇸 United States

Wystrzelony Dec 17, 2025 z Vandenberg Space Force Base

Loading…

Następne Przeloty (najbliższe 24 godziny)

TLE

ŚwieżeSource: CelesTrak SupGP

Epoka: Sep 15, 2026, 03:21 UTC

1 67200C 25304J   26258.14006944 -.00035029  00000+0 -29359-2 0  2588
2 67200  70.0013  56.7439 0002504 270.6939  89.9074 14.98344704    11

Śledź STARLINK-36270 w czasie rzeczywistym z AllMySat

Download on the App Store